Location: Gebenbach
(49.5378°N, 11.8735°E)
Time: 14:36:32
(UTC+00:00)

Cosmos 1408 - Pass Details

Date: 29 October 2020
Orbit: 470 x 492 km, 82.6° (Epoch: 28 November)

Event Time Altitude Azimuth Distance (km) Brightness Sun altitude
Rises 16:37:11 0° 2° (N) 2,558 6.1 -7.4°
Reaches altitude 10° 16:39:42 10° 19° (NNE) 1,677 5.0 -7.8°
Maximum altitude 16:42:30 21° 69° (ENE) 1,162 3.9 -8.2°
Drops below altitude 10° 16:45:19 10° 120° (ESE) 1,676 4.8 -8.7°
Sets 16:47:49 0° 137° (SE) 2,556 5.9 -9.1°
